Temperature
14 12 12 12 13 14 14 13 13 13 14 14 13 13 14 15 14 14 15 16 17 18 17 17 16 16 16 16 16 15 15 14 13 12 12 11 11 10 10 10 10 9 9 9
12 12 12 13 13 13 13 13 13 13 13 13 12 12 13 12 13 15 15 16 17 17 16 16 16 16 16 16 15 15 14 14 13 12 12 11 11 10 10 10 10 9 9 9
12 12 13 13 13 13 12 12 13 13 13 13 12 12 12 13 14 14 15 16 16 16 16 16 16 16 15 15 15 14 14 13 13 12 12 11 11 10 10 10 9 9 9 9
11 12 13 13 12 12 12 12 13 13 12 11 12 11 12 13 12 12 13 14 15 16 16 16 15 15 15 15 14 14 13 13 12 12 12 11 11 11 10 10 10 9 9 9
11 11 12 12 13 12 13 13 13 13 12 11 11 11 11 11 12 13 13 14 15 15 15 15 15 15 14 14 14 13 13 13 12 12 12 11 11 11 10 10 10 9 9 8
12 12 12 13 13 13 13 12 11 9 10 10 10 10 10 11 13 13 13 14 14 14 14 14 14 14 13 13 13 13 13 12 12 12 12 11 11 11 10 10 9 9 8 8
12 12 13 13 13 13 13 12 11 11 10 10 10 10 10 12 12 12 13 14 14 13 13 13 13 13 13 13 13 13 12 12 12 12 11 11 11 11 10 10 9 9 8 8
10 11 12 12 12 11 11 12 11 11 10 9 10 9 11 12 12 13 13 14 14 13 13 13 13 13 13 13 13 13 12 12 12 12 11 11 11 10 10 9 9 8 8 7
11 11 12 12 12 12 11 11 12 11 10 10 9 9 10 13 14 13 13 12 12 13 13 13 13 13 13 13 13 13 12 12 12 11 11 11 10 10 10 9 9 8 7 7
11 11 12 12 12 12 11 10 10 10 10 10 10 10 11 13 14 13 11 11 12 12 12 12 13 13 13 13 12 12 12 12 11 11 11 10 10 10 9 9 8 8 7 7
11 11 11 11 11 11 10 10 10 9 9 9 9 10 11 12 12 11 11 12 12 13 13 13 13 13 12 12 12 12 11 11 11 11 10 10 9 9 8 8 7 7 7 6
10 10 10 10 11 11 11 10 10 10 9 8 8 10 12 12 11 11 12 14 14 14 13 13 13 13 12 12 12 12 11 11 11 10 10 9 9 8 8 7 7 6 6 6
11 10 10 10 10 10 10 10 10 10 9 7 8 10 12 12 12 14 14 15 15 14 14 13 13 13 12 12 12 11 11 11 10 10 9 9 8 8 7 7 6 6 6 5
11 9 10 11 10 10 9 10 10 10 9 8 9 10 12 13 13 13 15 15 15 15 14 13 13 13 13 12 12 11 11 10 10 9 9 8 8 7 7 6 6 5 5 5
10 9 9 10 11 10 10 10 10 10 10 10 10 10 12 13 13 14 15 15 15 14 14 14 14 13 13 12 12 11 10 10 9 9 8 8 7 7 6 6 5 5 5 4
9 10 9 10 10 10 10 10 10 10 10 10 10 11 12 13 14 13 14 14 14 15 15 15 14 13 13 12 12 11 10 9 9 8 8 7 7 6 6 5 5 5 4 4
8 9 9 9 10 10 9 10 10 9 9 10 11 12 13 12 11 12 14 14 15 15 15 15 14 14 13 12 11 11 10 9 8 8 7 7 6 6 5 5 5 4 4 3
9 9 8 8 9 9 11 11 11 10 10 10 10 11 11 11 13 14 14 14 15 15 15 15 14 13 12 11 10 10 9 8 8 7 7 6 6 5 5 4 4 4 3 3
9 9 7 7 8 8 9 10 10 10 10 10 10 10 11 11 11 12 14 14 14 14 14 14 13 12 11 10 9 9 8 7 7 7 6 6 5 5 4 4 4 3 3 2
7 8 7 6 8 8 10 11 10 10 10 11 10 10 9 9 9 11 14 14 14 13 13 13 12 11 10 9 8 8 7 7 7 6 6 5 5 4 4 3 3 3 2 2
7 7 7 7 8 8 9 10 10 10 11 12 12 11 10 8 11 12 13 13 13 12 12 11 11 10 9 8 8 7 6 6 6 5 5 4 4 4 3 3 2 2 2 1
8 7 6 6 7 8 9 9 10 11 13 13 13 13 12 12 12 12 12 12 12 11 10 10 9 8 8 7 7 6 6 5 5 5 4 4 3 3 3 2 2 1 1 0
8 9 8 8 10 10 10 11 13 13 13 13 14 14 13 12 12 12 11 11 10 10 9 8 8 7 7 6 6 5 5 5 4 4 4 3 3 2 2 2 1 1 0 -0
6 6 6 7 7 8 10 11 13 13 13 14 14 13 13 12 12 11 11 10 9 8 8 7 7 7 6 5 5 4 4 4 4 3 3 3 2 2 1 1 0 -0 -0 -1
7 5 6 7 7 8 10 12 13 13 13 13 13 13 12 12 11 11 10 9 8 8 7 6 6 6 5 4 4 4 3 3 3 3 2 2 1 1 1 0 -0 -1 -1 -2
5 6 7 8 8 8 10 14 13 13 13 12 12 12 11 11 11 10 9 8 7 7 6 6 5 5 4 4 3 3 3 2 2 2 2 1 1 0 0 -0 -1 -1 -2 -2
Wind_Speed
5 5 8 11 11 8 6 5 7 8 5 4 10 14 17 12 9 12 12 11 12 12 6 4 4 4 4 5 7 9 10 10 10 7 6 5 4 3 3 3 5 5 5 5
4 8 10 8 6 5 5 5 7 9 5 5 8 13 14 12 10 12 13 13 13 10 7 6 6 4 5 6 7 9 10 11 10 7 5 4 4 4 3 4 5 5 5 5
12 7 7 7 6 7 7 7 8 9 7 4 6 10 9 9 7 9 10 10 10 13 12 10 8 6 6 6 8 9 10 10 9 9 7 6 5 4 3 2 2 4 5 6
9 6 6 7 8 10 8 9 9 6 4 6 2 7 9 9 10 11 11 10 11 10 11 10 9 8 7 6 6 8 9 9 9 10 10 9 6 4 4 3 3 3 6 6
9 8 9 9 10 12 9 4 5 3 4 5 3 5 10 8 10 13 10 10 9 10 12 12 10 9 7 7 7 8 9 9 8 8 10 9 6 5 4 4 4 4 4 5
6 6 9 10 7 8 6 6 5 5 3 5 6 7 9 7 9 9 8 7 8 9 10 9 8 8 7 6 7 8 9 8 8 9 8 9 10 8 7 5 4 3 2 2
5 5 4 5 6 4 6 5 2 4 2 7 4 5 11 13 10 10 13 10 8 9 10 11 11 11 10 9 9 8 10 8 8 9 8 9 9 9 8 7 5 4 2 1
10 8 10 8 9 9 8 11 8 6 6 5 3 8 10 12 10 10 10 7 7 10 11 12 13 12 12 11 10 10 10 9 8 9 8 7 8 6 5 6 5 5 3 3
12 9 4 8 6 12 8 7 8 5 2 4 7 8 11 10 10 7 5 4 7 10 11 12 11 11 11 12 11 11 11 9 9 9 8 8 7 7 6 6 5 4 3 3
10 7 4 4 5 2 8 10 6 6 5 6 7 6 6 10 10 9 7 7 7 8 10 11 11 11 10 10 9 9 9 9 8 9 8 7 7 7 7 6 6 5 4 3
8 8 3 4 9 11 7 7 6 7 6 6 5 7 7 9 9 10 10 7 7 10 11 11 10 10 9 9 9 9 9 9 8 9 8 8 7 6 6 6 5 5 4 4
8 7 6 7 5 7 9 10 10 8 7 6 4 8 8 7 8 8 8 6 6 8 9 9 10 10 10 11 10 11 10 10 9 9 8 8 7 7 6 6 5 5 4 4
11 8 5 0 1 3 6 7 9 7 6 7 7 9 5 5 7 6 6 6 5 7 8 9 10 11 12 12 12 11 11 10 9 9 9 8 7 7 7 6 5 5 4 3
10 7 9 13 8 9 8 9 10 9 7 9 12 12 10 11 12 11 9 7 6 7 9 10 11 12 12 12 12 12 11 10 10 10 9 9 8 7 7 6 5 5 4 4
8 8 8 7 7 8 9 10 13 14 14 13 12 13 16 15 13 12 10 8 6 8 9 12 13 12 12 12 12 12 11 11 11 11 10 9 7 6 6 5 5 4 4 5
8 8 8 7 7 7 7 10 13 15 13 14 13 14 15 12 9 10 10 9 9 10 11 11 12 12 13 14 13 12 12 11 11 11 9 8 7 6 5 5 4 4 4 5
9 8 8 6 5 3 8 12 13 10 9 11 16 19 14 10 11 11 11 10 11 10 9 10 11 12 13 13 13 14 12 10 11 10 8 7 7 6 5 5 4 5 5 5
12 10 6 5 5 9 10 8 12 12 12 13 11 11 11 12 9 7 7 9 9 8 7 8 8 9 8 9 10 10 10 11 10 9 8 7 6 6 5 4 5 5 4 5
7 10 6 6 6 7 8 6 9 11 11 13 15 14 9 3 1 6 6 7 7 5 5 5 6 7 8 10 11 11 10 10 9 9 8 7 6 5 4 5 5 5 4 6
5 6 7 6 6 8 9 6 6 7 8 10 12 13 9 7 3 6 2 3 2 3 3 5 7 8 9 9 11 12 10 9 9 8 6 5 5 5 5 6 5 4 4 6
6 5 7 7 7 8 8 4 9 7 9 5 9 10 10 10 7 2 3 3 4 4 6 7 9 8 8 9 11 10 9 8 6 5 5 4 4 5 5 4 4 5 5 6
11 9 8 7 6 10 7 10 11 10 4 4 6 7 9 8 4 4 4 5 6 6 7 8 9 8 7 8 10 9 7 5 5 5 4 3 3 3 3 4 5 5 5 7
10 11 9 11 10 6 8 10 8 5 6 6 6 6 8 7 6 6 5 6 6 7 7 7 10 9 6 6 8 8 6 5 5 4 3 3 3 3 4 4 5 5 5 6
5 3 6 5 8 7 7 6 5 6 6 5 6 7 9 8 8 7 7 6 6 6 7 7 9 9 6 5 5 6 5 5 4 3 3 3 3 4 4 4 5 5 6 7
8 9 6 6 6 3 6 9 9 7 5 5 5 6 8 9 8 8 7 7 7 6 6 7 8 8 7 5 5 4 4 4 3 3 3 3 4 5 5 6 6 7 7 8
7 10 11 9 9 9 8 8 9 9 8 8 8 6 6 8 8 8 8 7 7 7 7 7 7 7 6 5 4 3 3 4 3 3 4 4 4 5 5 6 7 11 13 18
Wind_Direction
145 137 192 200 197 194 190 210 252 260 259 250 258 267 276 273 259 255 251 240 234 234 227 192 175 152 140 143 150 156 156 157 155 154 152 147 147 138 123 116 124 131 133 138
120 219 211 193 188 190 202 237 263 282 271 226 268 274 273 265 248 242 242 238 230 221 203 190 174 163 159 153 151 152 156 158 160 158 150 140 134 127 118 108 95 101 114 119
191 212 185 173 179 189 212 214 238 259 307 307 302 295 283 281 260 257 246 238 226 211 201 190 178 171 160 159 159 156 154 153 150 140 126 110 98 92 100 97 89 71 96 102
213 214 161 177 197 182 234 224 223 250 287 288 328 295 285 277 286 270 254 239 227 211 193 185 178 173 171 167 153 145 145 144 145 146 148 146 145 148 153 138 119 83 84 92
217 187 178 196 204 181 212 211 194 226 228 280 275 258 280 295 281 275 264 245 230 208 190 183 180 173 162 154 148 142 136 136 142 146 147 140 130 129 123 114 110 92 72 81
213 199 193 202 198 180 156 88 66 52 82 270 234 220 277 255 247 277 284 261 231 199 182 172 161 150 147 145 144 142 137 135 139 139 141 142 140 139 135 132 126 112 92 76
213 227 208 161 132 124 133 124 351 317 292 251 229 220 253 254 254 261 276 272 226 189 176 170 168 167 164 161 158 151 144 141 144 141 142 146 146 148 149 150 149 144 137 126
183 227 202 185 170 169 179 164 179 220 238 279 269 237 255 266 271 268 269 260 204 186 183 183 181 176 172 169 165 159 155 149 150 147 147 145 143 144 147 150 151 156 160 166
183 218 220 194 174 154 159 195 182 165 213 267 267 277 298 286 289 296 292 252 206 193 189 187 182 179 176 174 174 168 161 155 157 153 146 145 147 147 148 147 145 150 159 163
152 192 222 165 110 126 161 151 125 156 209 247 268 263 251 277 289 303 293 264 229 199 191 187 184 184 181 177 170 166 163 161 158 156 154 153 153 151 148 145 153 158 162 159
146 157 157 149 180 178 141 152 157 163 179 192 253 262 231 246 274 289 289 266 224 203 197 192 189 183 176 169 168 170 167 159 159 160 154 149 151 149 148 154 164 166 167 171
152 148 187 221 224 188 177 177 162 180 213 203 219 265 265 255 275 277 286 275 228 206 197 191 184 176 176 179 178 177 174 170 168 160 154 154 152 152 156 166 173 172 177 187
151 150 153 253 239 183 198 196 191 180 170 191 211 258 283 290 292 285 280 275 236 206 195 187 184 187 189 188 185 181 178 173 163 157 155 155 159 163 170 176 178 181 188 202
148 151 184 197 198 178 191 199 189 180 202 221 227 246 274 284 285 288 283 270 238 215 200 194 196 197 195 190 186 182 179 170 163 160 160 166 173 176 178 180 185 193 200 215
144 177 193 200 179 166 188 196 192 202 210 220 234 237 249 253 257 267 273 266 245 226 211 205 203 200 193 187 184 180 175 169 165 162 167 175 173 171 173 183 195 204 216 231
153 173 175 206 204 194 211 213 205 215 223 232 247 258 252 254 256 260 257 246 242 234 223 213 205 197 193 190 184 177 174 170 164 166 171 168 165 170 182 194 203 216 236 248
158 144 157 209 199 170 243 219 207 208 209 203 228 244 252 252 247 244 246 239 238 239 226 213 207 201 195 188 179 177 171 160 160 163 163 165 169 179 195 201 209 229 243 248
157 152 153 156 139 218 238 214 204 211 226 213 222 239 239 238 247 247 234 233 240 236 225 212 199 189 176 166 161 155 151 155 157 158 164 169 173 188 198 207 227 240 245 251
152 149 143 156 200 259 284 240 188 199 243 224 224 239 243 224 311 284 237 218 227 229 215 195 173 157 148 150 148 143 146 149 153 162 170 175 179 191 205 225 241 246 249 258
98 129 141 153 184 226 237 226 168 143 257 241 209 225 218 150 202 261 237 175 170 140 135 133 127 124 134 140 140 141 147 152 163 170 173 175 180 194 214 231 244 245 248 258
134 138 160 169 205 247 243 179 126 165 236 239 193 203 183 186 206 203 116 108 116 111 113 119 120 125 134 137 136 139 146 160 162 154 156 170 188 205 222 235 243 255 263 272
165 165 176 163 195 240 209 149 180 211 210 184 182 183 182 189 153 133 129 125 123 117 117 121 120 117 121 132 134 137 150 151 141 144 158 187 210 224 229 240 258 263 266 275
188 183 178 189 210 219 180 194 207 180 190 195 181 181 168 166 173 160 149 141 135 131 129 123 124 118 114 123 132 140 149 140 137 145 182 219 239 246 244 245 259 269 265 266
229 149 150 203 243 232 219 225 217 196 201 193 176 165 162 168 168 160 153 149 143 137 133 129 127 127 127 126 125 136 140 138 141 173 219 237 249 262 261 252 248 254 259 264
182 161 165 211 246 257 246 221 211 195 183 162 153 164 169 160 162 162 159 157 151 140 132 133 135 137 139 135 129 131 138 140 160 208 238 250 251 256 263 259 250 254 246 251
179 170 175 206 205 191 219 216 186 179 186 177 160 151 157 163 161 154 154 152 146 140 134 130 131 135 140 140 140 145 153 159 181 231 249 251 254 259 261 271 282 272 269 277
Height
1503 1510 1513 1512 1512 1513 1516 1520 1521 1516 1510 1511 1510 1506 1497 1492 1492 1489 1487 1487 1487 1489 1491 1493 1495 1497 1498 1500 1502 1504 1507 1511 1515 1519 1522 1526 1529 1531 1534 1535 1537 1537 1538 1538
1506 1508 1504 1505 1509 1512 1515 1519 1519 1514 1508 1509 1509 1503 1493 1487 1485 1482 1480 1479 1480 1483 1486 1488 1490 1493 1495 1497 1499 1501 1505 1509 1512 1516 1520 1523 1526 1529 1531 1532 1534 1534 1535 1535
1501 1500 1499 1504 1508 1513 1515 1517 1516 1514 1509 1507 1508 1503 1492 1482 1479 1476 1474 1473 1474 1476 1479 1482 1486 1489 1492 1494 1496 1499 1502 1506 1510 1514 1518 1521 1524 1526 1528 1529 1531 1532 1532 1532
1497 1496 1498 1502 1505 1509 1513 1508 1510 1511 1515 1518 1512 1515 1495 1484 1478 1472 1468 1467 1467 1470 1473 1477 1481 1485 1488 1492 1495 1498 1501 1504 1508 1511 1515 1518 1520 1523 1525 1527 1528 1529 1530 1530
1493 1492 1494 1498 1499 1502 1504 1502 1507 1509 1513 1517 1514 1517 1499 1485 1479 1467 1463 1462 1462 1465 1468 1473 1477 1482 1486 1489 1492 1496 1499 1502 1506 1509 1513 1516 1518 1521 1523 1525 1526 1527 1527 1527
1486 1486 1487 1489 1491 1495 1499 1504 1510 1516 1518 1522 1513 1516 1502 1485 1472 1465 1460 1459 1459 1461 1465 1470 1475 1479 1483 1486 1490 1493 1497 1500 1504 1507 1511 1514 1516 1518 1520 1522 1523 1524 1525 1525
1487 1485 1484 1485 1491 1495 1498 1509 1520 1520 1524 1519 1508 1510 1496 1471 1465 1463 1459 1457 1457 1459 1462 1466 1471 1475 1479 1483 1487 1491 1495 1498 1502 1505 1509 1512 1514 1516 1518 1519 1521 1521 1522 1522
1489 1489 1482 1481 1484 1492 1496 1501 1515 1521 1521 1516 1507 1506 1484 1465 1460 1458 1456 1454 1454 1456 1459 1463 1468 1472 1476 1481 1485 1489 1493 1496 1500 1503 1506 1509 1511 1514 1515 1517 1518 1518 1519 1518
1478 1482 1474 1475 1476 1482 1494 1497 1496 1508 1513 1516 1508 1496 1480 1461 1456 1455 1453 1452 1451 1453 1457 1461 1466 1470 1474 1479 1483 1487 1491 1494 1498 1501 1504 1507 1509 1511 1512 1513 1514 1515 1515 1515
1466 1478 1473 1473 1476 1479 1482 1488 1501 1507 1513 1513 1505 1497 1485 1465 1457 1454 1453 1451 1450 1452 1455 1459 1464 1469 1473 1477 1481 1486 1489 1493 1496 1499 1502 1504 1506 1508 1509 1510 1511 1512 1512 1512
1459 1470 1475 1475 1476 1480 1485 1489 1491 1500 1505 1509 1507 1492 1468 1462 1458 1455 1451 1449 1449 1451 1453 1457 1462 1467 1471 1475 1479 1483 1487 1490 1493 1496 1499 1501 1503 1505 1506 1507 1508 1508 1508 1508
1453 1464 1474 1474 1469 1469 1472 1477 1484 1494 1499 1502 1501 1487 1458 1457 1454 1452 1450 1448 1449 1450 1453 1456 1460 1464 1468 1472 1476 1479 1483 1487 1490 1493 1496 1498 1500 1501 1503 1504 1504 1504 1504 1504
1448 1461 1473 1475 1475 1472 1472 1473 1474 1477 1486 1496 1498 1481 1455 1454 1451 1450 1449 1448 1448 1449 1451 1454 1457 1460 1464 1468 1471 1475 1479 1483 1486 1489 1492 1494 1496 1498 1499 1500 1500 1501 1500 1500
1438 1452 1457 1462 1461 1462 1468 1468 1469 1474 1481 1484 1480 1469 1458 1453 1450 1448 1447 1447 1447 1447 1448 1450 1452 1455 1459 1463 1467 1471 1475 1479 1482 1485 1488 1490 1492 1494 1495 1496 1496 1496 1496 1495
1436 1447 1449 1449 1449 1454 1455 1458 1462 1465 1465 1468 1463 1462 1453 1448 1447 1445 1444 1444 1443 1443 1444 1445 1447 1450 1454 1457 1461 1465 1470 1474 1478 1481 1484 1487 1489 1490 1491 1492 1492 1492 1491 1490
1434 1441 1446 1448 1448 1450 1452 1452 1455 1456 1456 1457 1456 1453 1442 1441 1442 1441 1440 1439 1439 1439 1439 1441 1443 1445 1448 1451 1455 1459 1464 1469 1473 1477 1480 1483 1485 1486 1487 1488 1488 1487 1486 1485
1432 1439 1447 1451 1447 1451 1454 1447 1447 1449 1448 1449 1449 1441 1434 1437 1436 1435 1434 1434 1434 1434 1435 1436 1438 1440 1442 1445 1449 1454 1459 1464 1469 1473 1476 1479 1481 1482 1483 1483 1483 1482 1481 1480
1425 1434 1443 1449 1452 1456 1439 1430 1432 1436 1435 1436 1434 1430 1429 1430 1429 1429 1429 1430 1429 1430 1431 1433 1434 1436 1439 1442 1446 1451 1456 1460 1465 1469 1472 1475 1476 1477 1478 1478 1478 1477 1475 1474
1417 1427 1442 1449 1449 1444 1435 1428 1428 1432 1431 1425 1426 1424 1424 1426 1427 1425 1424 1425 1426 1427 1428 1430 1431 1433 1436 1440 1444 1448 1452 1457 1462 1465 1468 1470 1472 1473 1473 1473 1472 1471 1469 1467
1419 1422 1435 1444 1443 1441 1427 1418 1417 1425 1428 1416 1417 1418 1420 1425 1430 1424 1421 1422 1423 1425 1426 1427 1429 1431 1435 1438 1442 1446 1450 1455 1458 1462 1464 1466 1467 1468 1468 1467 1466 1465 1463 1460
1422 1426 1431 1437 1436 1431 1418 1415 1418 1430 1422 1409 1410 1412 1415 1419 1419 1420 1420 1421 1422 1423 1425 1426 1428 1431 1434 1438 1441 1445 1449 1453 1456 1459 1461 1462 1463 1463 1463 1462 1460 1459 1456 1453
1409 1420 1427 1432 1433 1427 1409 1413 1415 1410 1406 1406 1407 1409 1411 1413 1415 1417 1418 1420 1421 1422 1424 1426 1428 1431 1435 1438 1441 1444 1448 1451 1454 1456 1457 1458 1458 1458 1457 1456 1454 1452 1449 1446
1399 1399 1405 1408 1407 1401 1400 1400 1400 1402 1403 1404 1405 1407 1409 1411 1413 1415 1417 1419 1420 1422 1424 1426 1429 1432 1435 1438 1441 1444 1447 1449 1451 1452 1453 1454 1453 1453 1451 1449 1447 1445 1442 1438
1395 1395 1399 1402 1399 1396 1396 1396 1397 1399 1401 1402 1403 1405 1407 1409 1411 1413 1415 1417 1419 1422 1424 1426 1429 1432 1434 1438 1441 1443 1445 1447 1448 1448 1449 1449 1448 1447 1445 1443 1441 1438 1434 1431
1384 1391 1394 1396 1393 1392 1391 1391 1393 1395 1398 1399 1401 1403 1405 1407 1409 1411 1414 1416 1418 1421 1423 1426 1429 1431 1434 1437 1439 1441 1442 1443 1444 1444 1444 1443 1442 1440 1438 1436 1433 1430 1427 1424
1379 1382 1386 1386 1383 1385 1384 1386 1389 1391 1393 1396 1399 1401 1403 1405 1407 1410 1412 1415 1417 1420 1423 1425 1428 1431 1433 1435 1437 1438 1439 1439 1439 1439 1438 1437 1435 1433 1430 1427 1424 1421 1419 1415